www.pogodaiklimat.ru

Погода и климат >> Архив погоды >> Сенегал >> Matam


ПОГОДА в Matam

  • Прогноз погоды в Matam
  • Монитор погоды в Matam
  • Климат города

АРХИВ ПОГОДЫ в Matam

Время (UTC), дата Ветер
(напр.,м/с)
 
Видим.   Явления Облачность Т
(С)
Тd
(С)
f
(%)
Тe
(С)
Тes
(С)
Комфортность P
(гПа)
Po
(гПа)
Тmin
(С)
Tmax
(С)
R
(мм)
R24
(мм)
S
(см)
12 17.04 С 1 10 км ясно +38.0 +10.2 19 +37 +63 опасность
солнечного
удара
1013.7 1011.8
15 17.04 СВ 1 10 км ясно +42.2 +10.0 15 +41 +60 опасность
перегрева
1010.0 1008.1
18 17.04 С 1 10 км ясно +41.7 +9.2 14 +40 +42 очень
жарко
1009.9 1008.0 +43.0
21 17.04 С 1 10 км ясно +34.4 +12.1 26 +34 +34 очень
жарко
1010.9 1009.0
00 18.04 С 1 10 км ясно +31.4 +10.8 28 +31 +31 жарко 1012.3 1010.4
03 18.04 С 2 10 км ясно +29.5 +11.5 33 +30 +30 жарко 1011.5 1009.6
06 18.04 С 1 10 км ясно +26.5 +11.8 40 +28 +28 жарко 1011.4 1009.5 +26.0
09 18.04 С 3 10 км ясно +28.5 +13.2 39 +30 +36 жарко 1014.0 1012.1
12 18.04 С 1 10 км ясно +35.5 +14.8 29 +37 +61 опасность
солнечного
удара
1014.7 1012.8
15 18.04 С 1 10 км ясно +40.0 +11.2 18 +39 +58 опасность
солнечного
удара
1011.8 1009.9
18 18.04 С 2 10 км ясно +39.5 +11.6 19 +39 +40 очень
жарко
1011.6 1009.7 +41.1
21 18.04 С 1 10 км ясно +34.3 +10.4 23 +33 +33 жарко 1012.6 1010.7
00 19.04 С 1 10 км ясно +29.8 +9.5 28 +29 +29 жарко 1013.7 1011.8
03 19.04 С 1 10 км ясно +28.0 +13.7 41 +30 +30 жарко 1012.3 1010.4
06 19.04 С 2 10 км ясно +24.1 +14.8 56 +27 +27 жарко 1013.3 1011.4 +23.5
09 19.04 С 2 10 км ясно +25.3 +14.9 53 +28 +35 жарко 1014.8 1012.9
12 19.04 СЗ 2 10 км ясно +33.0 +15.5 35 +35 +56 опасность
солнечного
удара
1014.3 1012.4
15 19.04 С 1 10 км ясно +36.2 +10.0 20 +35 +54 опасность
солнечного
удара
1011.2 1009.3
18 19.04 С 1 10 км ясно +37.0 +8.9 18 +35 +37 очень
жарко
1010.3 1008.4 +38.0
21 19.04 С 1 10 км ясно +32.0 +9.9 26 +32 +32 жарко 1011.0 1009.1
00 20.04 С 1 10 км ясно +29.0 +11.5 34 +30 +30 жарко 1012.0 1010.1
03 20.04 СЗ 2 10 км ясно +25.0 +13.4 49 +27 +27 жарко 1011.0 1009.1
06 20.04 СЗ 2 10 км ясно +21.2 +14.4 65 +24 +24 комфорт 1011.4 1009.5 +20.6
09 20.04 С 3 10 км 3/0
[Ci sp]
+22.2 +16.1 68 +26 +31 душно 1012.8 1010.9
12 20.04 СЗ 2 10 км 4/0
[Ci sp]
+29.5 +15.5 43 +32 +53 опасность
солнечного
удара
1013.5 1011.6
15 20.04 СЗ 4 10 км 3/0
[Ci sp]
+36.0 +11.2 22 +35 +45 очень
жарко
1010.2 1008.3
18 20.04 СЗ 2 10 км 3/0
[Ci sp]
+36.2 +8.8 19 +35 +36 очень
жарко
1008.9 1007.0 +37.0
21 20.04 С 1 10 км ясно +31.4 +9.7 26 +31 +31 жарко 1010.9 1008.1
00 21.04 С 1 10 км ясно +28.0 +10.7 34 +29 +29 жарко 1011.2 1009.3
03 21.04 С 1 10 км ясно +26.0 +11.1 39 +27 +27 жарко 1009.9 1008.0
06 21.04 С 3 10 км ясно +24.0 +12.2 48 +26 +26 жарко 1010.5 1008.6 +23.4
09 21.04 С 2 10 км ясно +25.7 +15.0 52 +29 +36 душно 1012.0 1010.1
12 21.04 С 2 10 км ясно +33.4 +14.6 32 +35 +56 опасность
солнечного
удара
1011.9 1010.0
15 21.04 З 1 10 км 3/0
[]
+38.1 +8.6 17 +36 +53 опасность
солнечного
удара
1008.5 1006.6
18 21.04 СЗ 2 10 км 3/0
[Ac trans]
+38.5 +8.5 16 +36 +38 очень
жарко
1008.9 1006.0 +39.6
21 21.04 С 1 10 км ясно +32.6 +8.8 23 +31 +31 жарко 1010.0 1008.1
00 22.04 С 1 10 км ясно +29.2 +8.2 27 +29 +29 жарко 1011.0 1009.1
03 22.04 С 2 10 км ясно +28.5 +7.5 27 +28 +28 жарко 1010.5 1008.6
06 22.04 С 1 10 км ясно +26.0 +9.9 36 +27 +27 жарко 1010.1 1008.2 +25.0
09 22.04 СВ 2 10 км 3/0
[Ci sp]
+28.0 +10.4 33 +28 +35 жарко 1011.8 1009.9
12 22.04 СВ 1 10 км 3/0
[Ci sp]
+36.0 +9.3 20 +35 +58 опасность
солнечного
удара
1012.4 1010.5
15 22.04 С 4 10 км 4/0
[Ci sp]
+40.2 +8.9 15 +38 +48 очень
жарко
1008.5 1006.6
18 22.04 С 1 10 км 3/0
[Ci sp]
+39.0 +9.2 17 +37 +39 очень
жарко
1008.2 1006.3 +41.0
21 22.04 С 1 10 км 3/0
[Ci sp]
+33.0 +9.8 24 +32 +32 жарко 1009.9 1008.0
00 23.04 СЗ 1 10 км 4/0
[Ci sp]
+31.0 +5.4 20 +29 +29 жарко 1010.9 1009.0
03 23.04 С 1 10 км 4/0
[Ci sp]
+29.0 +3.4 19 +27 +27 жарко 1009.6 1007.7
06 23.04 С 1 10 км 4/0
[Ci sp]
+26.0 +6.1 28 +26 +26 жарко 1010.1 1008.2 +25.4
09 23.04 С 1 10 км 5/0
[Ci sp]
+28.5 +7.8 27 +28 +35 жарко 1013.2 1011.3
12 23.04 С 2 10 км 5/0
[Ci sp]
+36.6 +7.1 16 +34 +53 опасность
солнечного
удара
1013.0 1011.1
15 23.04 С 3 10 км 6/0
[Ci sp]
+41.8 +10.3 15 +40 +52 опасность
солнечного
удара
1009.6 1007.7
18 23.04 С 3 10 км 4/0
[Ci sp]
+40.0 +9.7 16 +38 +40 очень
жарко
1008.9 1007.0 +42.0
21 23.04 С 1 10 км 3/0
[Ci sp]
+35.0 +10.8 23 +34 +34 очень
жарко
1010.7 1008.8
00 24.04 С 3 10 км 5/0
[Ci sp]
+32.0 +9.1 24 +31 +31 жарко 1011.3 1009.4
03 24.04 С 2 10 км ясно +30.0 +9.0 27 +29 +29 жарко 1010.5 1008.6
06 24.04 С 2 10 км ясно +27.5 +7.2 28 +27 +27 жарко 1010.8 1008.9 +27.0
09 24.04 С 1 10 км 3/0
[Ac trans]
+30.0 +6.7 23 +29 +35 жарко 1012.9 1011.0

 

Местоположение метеостанции Matam (Сенегал): широта 15.65 долгота -13.25 высота над уровнем моря 17 м.

В архиве по умолчанию представлена погода в Matam за последнюю неделю. Архивные данные за месяц целиком и за предыдущие месяцы, начиная с января 2011 года, Вы можете получить, выбрав интересующий диапазон дат из раскрывающегося списка и нажав кнопку "Ввод!".


*Определитесь, кто Вы:
робот инопланетянин человек

Внимание! Время в таблицах - всемирное. Для получения местного времени необходимо прибавить поправку, которая в Matam равна 0 ч.

Смотрите также архив погоды в соседних городах и на ближайших метеорологических станциях:

Погода в Kaedi (Мавритания) (62 км)
Погода в Fatoto (Гамбия) (198 км)
Погода в Linguere (Сенегал) (202 км)
Погода в Podor (Сенегал) (214 км)
Погода в Tambacounda (Сенегал) (214 км)
Погода в Kiffa (Мавритания) (226 км)
Погода в Kayes (Мали) (238 км)
Погода в Boutilimit (Мавритания) (259 км)
Погода в Georgetown (Гамбия) (287 км)
Погода в Rosso (Мавритания) (289 км)

Пояснения к столбцам:

Ветер - указаны скорость ветра в м/с - средняя за 10 мин, порывы в срок и между сроками (в фигурных скобках) и направление, откуда дует ветер: С - северный, СВ - северо-восточный, В - восточный, ЮВ - юго-восточный, Ю - южный, ЮЗ - юго-западный, З - западный, СЗ - северо-западный.
Видимость - горизонтальная дальность видимости в метрах или километрах. При видимости от 1 до 10 км при отсутствии осадков обычно наблюдается дымка, при ухудшении видимости до 1 км и менее - туман. В сухую погоду видимость может ухудшаться дымом, пылью или мглою.
Явления - указаны атмосферные явления, наблюдавшиеся в срок или в последний час перед сроком; фигурными скобками обозначены явления, наблюдавшиеся между сроками (за 1-3 часа до срока); квадратными скобками обозначены град или гололедные отложения с указанием их диаметра в мм.
Облачность - указаны через наклонную черту общая и нижняя облачность в баллах и высота нижней границы облаков в метрах; квадратными скобками обозначены формы облаков: Ci - перистые, Cs - перисто-слоистые, Cc - перисто-кучевые, Ac - высококучевые, As - высокослоистые, Sc - слоисто-кучевые, Ns - слоисто-дождевые, Cu - кучевые, Cb - кучево-дождевые. Подробнее классификацию облаков см. в Атласе облаков (PDF).
T - Температура воздуха - температура, измеренная на высоте 2 м над землей.
Td - Температура точки росы - температура, при понижении до которой содержащийся в воздухе водяной пар достигнет насыщения.
f - Относительная влажность воздуха - влажноcть воздуха, измеренная на высоте 2 м над землей.
Te - Эффективная температура - температура, которую ощущает одетый по сезону человек в тени. Характеристика душности погоды. При расчете учитывается влияние влажности воздуха и скорости ветра на теплоощущения человека.
Tes - Эффективная температура на солнце - температура, которую ощущает человек, с поправкой на солнечный нагрев. Характеристика знойности погоды. Зависит от высоты солнца над горизонтом, облачности и скорости ветра. Ночью, в пасмурную погоду, а также при ветре 12 м/с и более поправка равна нулю.
P - Атмосферное давление - приведенное к уровню моря атмосферное давление.
Po - Атмосферное давление - измеренное на уровне метеостанции атмосферное давление.
Tmin - Минимальная температура - минимум температуры воздуха на высоте 2 м над землей.
Tmax - Максимальная температура - максимум температуры воздуха на высоте 2 м над землей.
R - Количество осадков - Количество выпавших осадков за период времени, мм. При наведении курсора мыши на число - период времени, за который выпало указанное количество осадков.
R24 - Количество осадков - Количество выпавших осадков за 24 часа, мм.
S - Снежный покров - Высота снежного покрова, см. При наведении курсора мыши на число - состояние снежного покрова и степень покрытия местности в баллах.